Theta_e
314 317 317 317 315 315 316 316 317 317 317 324 326 325 324 325 325 325 325 325 325 325 325 325 325 322 321 318 315 316 317 316 317 314 311 306 305 304 304 304 305 304 301 300
314 315 315 314 314 315 315 317 318 317 315 321 320 322 322 325 325 325 325 325 325 324 322 320 321 322 321 318 317 314 313 309 307 305 304 303 305 305 305 304 303 300 300 298
315 314 314 314 316 317 317 318 318 319 319 319 321 323 323 324 324 325 325 325 324 323 323 321 317 317 315 314 313 308 306 305 304 303 303 304 303 302 303 303 302 300 300 297
314 314 315 316 317 316 319 317 317 318 320 322 321 323 320 322 323 323 322 318 315 316 315 313 311 311 312 311 305 307 304 303 302 303 303 303 301 302 302 301 300 297 296 295
315 315 315 317 317 316 318 316 318 319 321 320 319 323 323 319 319 311 309 311 309 308 309 308 308 307 307 309 309 306 303 303 303 302 301 300 301 301 300 298 296 295 295 295
314 312 315 316 314 315 314 315 315 315 317 321 320 321 321 320 318 313 307 308 307 307 307 306 305 309 309 309 311 304 303 303 302 301 300 300 300 300 298 296 296 295 295 295
316 316 315 314 317 315 316 318 320 321 321 323 317 318 320 315 311 311 308 308 307 306 305 308 309 310 308 307 306 303 303 303 301 300 299 299 300 299 298 297 297 296 295 294
318 318 317 316 317 317 315 316 321 321 319 321 318 323 320 312 309 308 308 308 308 309 310 311 311 308 306 305 304 303 303 302 301 300 299 299 299 299 298 298 297 296 296 296
318 317 313 315 315 315 316 318 315 318 316 320 319 319 315 312 310 309 309 310 312 312 311 308 309 308 305 304 304 303 303 302 300 300 298 298 297 298 299 299 297 296 295 294
313 316 312 315 315 316 317 315 319 318 321 319 317 319 318 315 313 310 310 311 311 311 309 307 307 306 304 303 303 303 303 301 300 300 299 298 296 297 298 298 297 295 294 293
313 314 314 315 317 318 317 317 315 314 316 322 319 318 315 314 315 312 312 309 311 309 306 304 306 307 302 302 302 303 303 301 300 300 299 298 297 298 298 296 295 294 294 293
313 314 318 317 316 314 316 316 313 321 315 314 315 316 313 312 312 311 311 309 311 310 303 304 305 301 301 301 302 303 302 301 300 299 298 297 297 297 295 294 294 294 293 293
312 313 318 316 313 312 315 315 313 312 311 314 318 317 312 311 313 312 311 306 303 302 302 302 303 300 301 301 302 303 301 301 300 298 298 297 296 296 295 294 294 294 294 293
312 313 313 313 313 314 314 314 314 313 315 316 314 313 309 310 310 305 303 303 303 304 306 304 300 300 301 302 302 301 301 301 299 298 299 296 295 295 294 294 294 294 293 293
313 315 314 313 313 314 314 314 314 314 313 315 313 312 307 307 307 304 304 306 306 306 301 301 301 300 300 300 300 300 300 299 298 299 298 296 295 295 294 294 294 293 293 292
311 314 313 313 311 312 313 313 315 314 314 314 313 312 308 309 305 308 307 307 303 301 301 301 301 302 303 302 301 300 299 298 299 298 296 296 295 294 294 293 293 293 293 292
313 313 313 314 312 310 313 312 313 312 312 314 313 313 311 307 306 304 303 302 302 301 301 302 302 301 300 298 299 299 299 298 298 297 295 294 294 294 294 293 293 293 292 292
312 311 311 313 310 309 309 308 311 312 312 311 311 307 307 305 304 303 303 303 301 302 301 300 298 297 297 297 298 298 298 297 296 295 294 294 293 293 293 293 292 292 292 291
311 311 312 314 312 307 310 311 312 312 313 312 310 307 305 305 304 303 302 301 300 300 298 297 296 295 295 296 296 296 296 296 294 294 294 293 293 293 292 291 290 291 291 292
308 309 313 310 312 312 309 308 310 311 314 311 311 311 306 306 306 304 300 300 298 297 296 295 295 294 295 295 295 295 295 295 294 293 292 292 292 291 291 290 289 289 290 291
313 310 312 310 313 311 308 309 310 313 312 307 307 308 306 307 304 301 300 298 296 296 295 294 294 294 294 294 294 294 293 293 293 292 292 292 291 291 290 290 290 289 290 291
314 314 313 310 311 311 309 311 312 310 307 306 306 306 305 303 301 299 297 296 294 294 293 293 293 293 292 293 294 293 293 292 292 292 292 292 292 291 291 290 289 289 289 290
315 312 314 310 312 309 309 310 308 307 307 306 306 305 303 300 298 296 294 293 292 292 292 292 292 292 292 292 293 293 293 293 293 292 292 291 291 291 290 290 290 289 289 289
310 308 313 312 309 308 308 307 307 307 307 305 304 302 300 299 296 295 294 293 292 292 292 291 291 291 291 291 291 292 292 293 293 292 291 292 292 292 290 289 290 289 288 288
310 309 310 308 308 307 306 307 306 304 302 301 300 299 298 296 295 295 294 292 291 292 292 291 291 290 290 290 291 292 292 292 291 291 290 290 290 289 289 289 288 289 288 288
309 310 312 312 309 309 306 305 303 302 300 298 297 297 296 295 295 294 293 291 292 291 291 290 291 290 290 290 290 291 290 290 291 291 291 290 290 290 290 290 289 289 289 290
Wind_Speed
3 1 7 8 6 4 3 2 6 7 7 8 16 16 14 22 21 22 25 26 25 23 11 17 17 17 16 14 11 12 10 9 9 8 8 12 15 17 18 18 19 22 22 23
1 6 9 5 4 6 6 6 12 10 4 11 4 12 6 19 26 28 23 22 19 10 10 5 8 13 12 11 6 2 3 3 3 7 11 12 14 17 18 17 17 17 17 17
5 6 2 3 4 8 7 7 5 5 3 3 1 4 3 8 17 18 15 12 13 18 21 15 8 12 14 9 3 3 1 3 7 10 11 14 16 16 15 15 15 16 17 17
4 3 2 6 4 7 3 7 3 3 4 4 2 4 4 3 4 7 5 4 7 12 15 19 19 18 16 9 6 6 4 7 9 10 13 16 17 15 15 14 14 15 15 15
4 4 4 3 2 4 2 3 2 2 3 1 4 4 1 4 6 8 8 7 13 15 21 28 26 19 17 6 6 8 5 8 11 13 16 17 16 15 14 14 14 13 14 16
5 3 2 2 1 1 3 2 4 3 2 4 2 3 1 5 6 3 8 11 17 27 28 26 23 13 11 0 11 7 5 8 13 16 16 17 16 15 13 12 13 14 16 17
3 3 4 3 2 2 4 3 3 2 1 3 2 1 5 10 11 4 12 17 20 24 24 19 13 6 6 4 5 5 6 9 12 16 16 16 15 15 14 14 16 17 18 18
1 1 7 8 3 2 3 1 2 4 5 6 1 3 3 7 11 14 17 20 21 20 15 6 3 5 4 5 7 5 6 9 13 15 16 16 16 16 15 15 17 19 21 22
2 1 1 7 5 3 2 2 1 1 1 2 1 4 4 6 10 13 16 15 12 7 8 9 5 2 3 7 7 7 7 9 13 14 17 18 19 19 19 18 17 19 20 21
3 1 3 4 3 11 5 2 1 3 2 4 2 3 4 7 6 11 12 8 6 6 5 5 3 7 10 8 8 7 7 10 13 15 19 22 23 20 18 16 16 18 18 21
2 1 2 2 7 3 3 2 6 4 1 1 2 2 4 10 8 12 6 8 2 4 7 2 8 9 6 6 7 6 8 13 15 17 21 24 22 16 14 13 18 17 20 23
1 3 3 2 2 3 3 3 2 2 3 1 1 2 5 6 9 10 9 8 1 4 5 2 6 5 6 8 7 8 11 14 17 19 22 24 21 15 15 16 16 18 21 23
4 2 3 1 1 1 4 3 4 6 2 3 2 2 6 2 7 4 2 2 6 7 3 9 9 9 8 8 8 9 13 16 17 19 23 24 19 15 15 16 18 21 22 23
5 3 0 1 2 1 1 3 2 2 2 5 1 1 8 3 6 7 8 7 8 10 9 6 6 5 4 4 6 10 13 13 14 18 23 21 18 17 16 17 19 21 21 22
3 4 4 7 6 4 3 3 4 3 3 1 3 4 5 7 7 9 7 1 3 6 6 4 5 6 7 8 10 11 10 10 14 21 21 19 17 18 15 18 19 22 24 25
2 3 4 3 4 1 2 3 8 9 7 7 6 4 8 4 8 6 5 6 8 8 8 8 9 11 16 15 12 11 10 13 18 21 20 17 17 19 17 18 20 23 24 25
3 6 3 4 1 1 1 0 2 3 3 1 1 2 9 7 9 10 9 11 11 10 9 11 13 14 16 13 12 13 13 14 16 18 19 21 19 20 18 17 20 23 22 24
6 5 1 2 1 2 0 3 3 8 3 2 5 7 6 10 12 10 10 10 9 9 10 11 11 13 15 12 11 11 12 14 16 17 20 21 18 19 19 20 22 21 15 22
3 5 3 2 2 2 1 3 4 1 2 3 8 12 11 12 12 11 9 9 8 9 8 8 8 11 13 13 13 13 12 13 17 20 23 19 20 19 20 22 22 14 19 16
8 6 3 2 1 1 1 3 4 6 2 4 1 2 14 10 2 3 5 8 6 7 6 7 8 11 13 14 14 16 12 14 18 21 21 19 19 21 24 26 23 21 17 17
2 3 2 2 1 1 3 6 3 1 2 3 5 8 11 5 6 9 5 7 7 7 7 7 8 10 13 14 16 16 15 14 17 15 15 18 19 20 22 23 25 25 22 20
4 4 2 2 2 2 2 1 1 5 6 9 14 14 18 15 11 9 8 7 7 7 8 8 9 9 11 13 16 18 21 19 18 16 15 17 18 19 20 22 24 27 29 27
2 1 4 1 3 4 4 9 12 12 14 10 13 12 13 14 12 9 8 8 8 8 8 9 9 11 12 12 13 16 16 18 19 18 18 18 17 18 20 21 23 26 29 30
1 2 4 4 6 8 12 17 17 12 15 13 12 12 12 14 10 10 9 9 9 9 9 10 10 11 12 14 13 11 13 15 16 16 18 18 19 18 18 20 21 23 26 28
2 5 6 5 8 13 12 15 14 17 15 16 16 14 13 11 11 10 10 11 10 10 9 9 11 9 12 13 14 15 15 16 16 18 19 19 19 20 20 18 18 19 18 21
5 6 4 5 19 6 11 14 14 17 16 14 15 15 12 10 11 9 11 11 10 10 11 10 11 10 11 13 14 15 16 17 17 18 20 20 21 21 21 22 19 16 16 16
Wind_Direction
31 255 262 268 228 235 192 216 258 251 191 189 225 242 213 191 202 207 212 211 210 213 222 231 223 206 210 199 202 221 234 254 270 279 286 288 289 293 293 291 292 288 289 291
346 274 268 249 217 204 214 246 257 276 234 208 258 260 243 196 212 212 215 219 217 207 218 237 209 203 196 184 184 220 230 188 252 285 293 303 310 306 296 294 295 294 299 300
218 254 124 264 256 212 221 234 245 256 104 175 209 266 236 213 223 221 226 236 218 218 210 192 181 155 142 122 174 179 287 315 325 319 319 323 323 318 307 303 300 304 313 317
243 296 276 297 252 194 255 214 235 159 175 270 214 291 256 278 241 237 247 149 155 170 170 153 146 132 115 121 89 346 302 332 328 333 336 335 333 331 323 319 316 322 329 329
271 287 311 300 348 195 300 41 57 102 173 206 185 234 233 28 58 29 35 93 121 136 140 126 125 115 112 71 312 294 310 334 343 346 346 346 346 345 338 332 329 332 335 333
261 274 283 318 54 11 133 57 59 74 114 243 308 249 353 22 338 2 83 106 119 125 123 120 120 121 110 312 306 247 312 343 347 347 350 351 348 347 342 340 336 336 336 331
324 344 340 17 344 70 52 36 309 272 247 276 59 233 47 3 352 175 122 116 117 119 117 109 113 107 144 250 244 262 303 347 347 347 348 350 345 341 336 335 333 332 328 321
319 262 7 342 42 332 43 57 252 285 292 308 302 305 41 59 71 101 117 124 125 126 127 129 161 159 225 258 241 260 311 331 338 341 345 345 341 336 327 328 326 325 318 311
182 158 352 44 42 345 103 71 314 244 111 245 338 116 121 105 105 122 131 133 118 98 113 120 111 203 250 280 263 273 297 326 333 338 342 343 337 329 320 324 319 319 319 317
179 232 16 359 336 43 49 48 248 37 306 302 302 335 24 342 171 155 154 132 100 65 80 108 356 307 290 275 261 266 290 320 325 335 341 340 333 320 320 318 316 317 320 317
122 169 7 35 31 347 355 50 61 101 57 247 298 65 351 312 257 160 140 142 95 182 170 235 340 326 292 278 281 290 303 309 318 330 336 336 332 328 323 326 326 336 332 328
57 106 65 105 129 30 62 81 86 129 177 87 60 320 19 50 89 142 171 196 278 177 192 236 336 326 289 284 281 284 297 309 316 326 334 335 338 333 339 337 330 329 326 327
164 59 115 245 262 108 50 57 95 99 106 178 179 55 123 176 73 71 66 113 129 126 57 31 340 306 312 307 283 286 297 305 312 323 332 334 339 336 331 331 327 325 324 331
95 76 156 186 81 50 304 4 163 236 182 148 155 8 18 48 98 113 111 79 66 35 347 306 311 317 317 296 281 292 297 300 311 325 332 336 341 332 326 327 332 343 336 323
85 98 88 75 73 78 66 358 188 220 145 61 126 107 112 116 114 104 102 88 262 3 350 7 35 26 13 350 335 316 301 307 320 327 338 338 337 330 327 324 331 340 339 341
39 117 116 86 57 130 105 105 95 85 105 110 126 153 180 134 121 92 26 5 51 55 47 34 24 9 348 333 335 320 306 313 325 337 341 340 332 334 323 325 330 330 332 336
99 139 150 169 214 211 183 162 105 112 62 121 262 59 158 120 62 34 49 68 73 64 43 22 1 357 341 346 353 349 335 326 330 342 347 348 339 337 335 328 328 330 333 333
123 110 81 127 204 223 55 297 271 117 94 77 71 84 98 113 99 79 74 81 71 42 5 1 4 360 8 13 11 353 340 338 344 351 357 1 354 349 350 340 332 336 330 338
118 125 106 160 187 276 99 168 182 31 58 24 108 111 140 136 124 75 64 58 39 20 16 20 24 16 14 15 2 350 349 350 353 355 355 2 5 359 358 2 4 1 338 351
79 79 110 172 168 97 284 298 184 96 82 27 84 131 167 171 270 82 59 23 42 28 37 24 30 24 23 17 10 6 356 353 350 350 354 3 3 8 15 13 6 7 7 6
95 52 113 149 132 94 262 273 182 291 73 355 101 101 130 101 84 122 88 51 51 41 34 33 32 29 23 20 22 10 11 1 345 340 358 2 8 11 13 12 19 19 18 17
159 140 152 138 109 101 0 292 44 115 98 94 85 94 100 110 109 97 84 66 44 39 34 32 32 28 20 21 22 20 24 19 23 24 16 13 14 15 14 17 19 22 24 25
132 191 141 334 84 21 38 103 117 123 111 106 100 108 111 111 104 99 80 59 41 32 29 34 32 32 26 19 18 24 16 9 10 17 20 21 20 24 17 19 20 21 23 23
88 146 104 137 46 83 95 106 110 95 105 109 104 114 113 112 108 93 72 56 43 39 41 34 35 33 29 25 21 12 1 3 8 17 21 24 24 26 23 22 23 23 20 18
158 137 114 87 120 104 91 110 112 107 106 108 106 105 107 108 100 82 67 53 46 44 43 38 34 34 29 24 24 19 16 18 23 26 27 28 26 26 30 31 23 21 21 18
186 146 154 168 178 119 141 129 121 113 113 111 111 109 102 96 96 78 67 57 54 48 47 38 38 38 33 30 28 27 30 29 30 31 30 29 30 31 31 33 37 32 26 21